{"data":{"norad_id":59388,"intl_designator":"2024-062Q","name":"STARLINK-31643","alt_names":[],"object_type":"PAYLOAD","status":"ACTIVE","operator":null,"country":"US","launch_date":"2024-04-02","launch_site_code":"AFWTR","launch_vehicle":null,"mission":null,"orbit_class":"UNKNOWN","rcs_meters":null,"size_class":null,"mass_kg":null,"dimensions":null,"purposes":["comms"],"wikipedia_slug":null,"has_3d_model":false,"image_url":null,"decayed_at":null,"tle_current":{"epoch":"2026-09-21T18:58:57.684288Z","epoch_age_seconds":50789,"freshness":"FRESH","line1":"1 59388U 24062Q   26264.79094542 -.00000452  00000+0 -22550-5 0  9998","line2":"2 59388  53.1610  61.3695 0000715  49.0462 311.0602 15.34389867139740","mean_motion":15.34389867,"eccentricity":7.15e-5,"inclination_deg":53.161,"raan_deg":61.3695,"arg_perigee_deg":49.0462,"mean_anomaly_deg":311.0602,"bstar":-2.255e-6,"rev_number":13974,"period_min":93.848377845159,"perigee_km":462.2442355537,"apogee_km":463.22248001486,"semimajor_km":6840.8703577843,"source":"CELESTRAK","updated_at":"2026-09-22T09:00:48.910760Z"}}}